SAA375 FAOR-FACT

Flight info

Callsign SAA375
Flight time N/A
Altitude 40000
Route RAGUL3A RAGUL UQ10 DUMDO UZ26 ERDAS ERDAS1C
Aircraft A343/H-SDE2E3FGHIJ4J5M1RWXY/LB1D1

Departure

Time 2026-05-04 17:25
Airport O.R. Tambo International Airport (FAOR)

Arrival

Time N/A
Airport Cape Town International Airport (FACT)
Time Latitude Longitude Altitude Speed Heading
2026-05-04 17:25 -26.10812 28.05711 13863 ft 353 kts 234°
2026-05-04 17:25 -26.13956 28.01430 15184 ft 360 kts 236°
2026-05-04 17:26 -26.17103 27.97014 16548 ft 368 kts 237°
2026-05-04 17:26 -26.21924 27.90217 18551 ft 378 kts 237°
2026-05-04 17:27 -26.25196 27.85611 19651 ft 385 kts 237°
2026-05-04 17:27 -26.28543 27.80901 20796 ft 390 kts 237°
2026-05-04 17:28 -26.31939 27.76116 21883 ft 397 kts 237°
2026-05-04 17:29 -26.37135 27.68786 23502 ft 407 kts 237°
2026-05-04 17:29 -26.42419 27.61323 24953 ft 411 kts 238°
2026-05-04 17:30 -26.48323 27.54153 26234 ft 424 kts 231°
2026-05-04 17:31 -26.52596 27.49566 27048 ft 429 kts 230°
2026-05-04 17:31 -26.59142 27.42606 28209 ft 437 kts 230°
2026-05-04 17:32 -26.63551 27.37895 28983 ft 441 kts 231°
2026-05-04 17:33 -26.70231 27.30733 30045 ft 447 kts 231°
2026-05-04 17:33 -26.72476 27.28322 30364 ft 449 kts 231°
2026-05-04 17:34 -26.79250 27.21041 31211 ft 454 kts 231°
2026-05-04 17:34 -26.81531 27.18587 31512 ft 455 kts 231°
2026-05-04 17:35 -26.88427 27.11158 32289 ft 461 kts 231°
2026-05-04 17:35 -26.93024 27.06208 33170 ft 455 kts 231°
2026-05-04 17:35 -26.95299 27.03757 33588 ft 452 kts 231°
2026-05-04 17:36 -26.97551 27.01320 33992 ft 449 kts 232°
2026-05-04 17:36 -26.99777 26.98878 34360 ft 447 kts 232°
2026-05-04 17:36 -27.01990 26.96432 34681 ft 445 kts 232°
2026-05-04 17:36 -27.04183 26.94002 35000 ft 443 kts 232°
2026-05-04 17:37 -27.06367 26.91583 35319 ft 441 kts 233°
2026-05-04 17:37 -27.08550 26.89167 35659 ft 439 kts 233°
2026-05-04 17:37 -27.10717 26.86774 36106 ft 434 kts 234°
2026-05-04 17:37 -27.12867 26.84404 36485 ft 431 kts 234°
2026-05-04 17:38 -27.14996 26.82051 36753 ft 430 kts 234°
2026-05-04 17:38 -27.17121 26.79699 36982 ft 429 kts 234°
2026-05-04 17:38 -27.19248 26.77342 37242 ft 429 kts 234°
2026-05-04 17:38 -27.21372 26.74988 37479 ft 428 kts 234°
2026-05-04 17:39 -27.25573 26.70333 37974 ft 426 kts 234°
2026-05-04 17:39 -27.27707 26.67968 38224 ft 425 kts 234°
2026-05-04 17:39 -27.29811 26.65634 38458 ft 424 kts 235°
2026-05-04 17:40 -27.31879 26.63338 38709 ft 423 kts 235°
2026-05-04 17:40 -27.33971 26.61014 38894 ft 423 kts 235°
2026-05-04 17:40 -27.36063 26.58689 39054 ft 422 kts 235°
2026-05-04 17:40 -27.38152 26.56366 39197 ft 423 kts 235°
2026-05-04 17:41 -27.42346 26.51693 39383 ft 426 kts 235°
2026-05-04 17:41 -27.44456 26.49342 39520 ft 426 kts 236°
2026-05-04 17:41 -27.46560 26.46997 39638 ft 427 kts 235°
2026-05-04 17:42 -27.48669 26.44647 39789 ft 427 kts 235°
2026-05-04 17:42 -27.50781 26.42293 39923 ft 427 kts 235°
2026-05-04 17:42 -27.52888 26.39943 40060 ft 426 kts 235°
2026-05-04 17:42 -27.54996 26.37588 40138 ft 428 kts 235°
2026-05-04 17:43 -27.59245 26.32832 40156 ft 431 kts 235°
2026-05-04 17:43 -27.63500 26.28071 40155 ft 434 kts 235°
2026-05-04 17:44 -27.67816 26.23227 40142 ft 441 kts 236°
2026-05-04 17:44 -27.72179 26.18328 40143 ft 447 kts 235°
2026-05-04 17:45 -27.76627 26.13332 40139 ft 454 kts 235°
2026-05-04 17:45 -27.81122 26.08284 40141 ft 456 kts 235°
2026-05-04 17:46 -27.85603 26.03251 40139 ft 454 kts 235°
2026-05-04 17:46 -27.90077 25.98213 40133 ft 454 kts 236°
2026-05-04 17:47 -27.94542 25.93172 40142 ft 454 kts 236°
2026-05-04 17:47 -27.98987 25.88145 40124 ft 455 kts 236°
2026-05-04 17:48 -28.03464 25.83086 40124 ft 455 kts 236°
2026-05-04 17:48 -28.07944 25.78009 40123 ft 455 kts 236°
2026-05-04 17:49 -28.12412 25.72935 40110 ft 455 kts 236°
2026-05-04 17:49 -28.16889 25.67846 40109 ft 455 kts 236°
2026-05-04 17:50 -28.21360 25.62758 40108 ft 456 kts 236°
2026-05-04 17:50 -28.25842 25.57650 40096 ft 457 kts 236°
2026-05-04 17:51 -28.30331 25.52531 40093 ft 458 kts 236°
2026-05-04 17:51 -28.34826 25.47399 40080 ft 458 kts 236°
2026-05-04 17:52 -28.39311 25.42272 40085 ft 458 kts 236°
2026-05-04 17:52 -28.43804 25.37128 40072 ft 458 kts 236°
2026-05-04 17:53 -28.48288 25.31988 40114 ft 458 kts 237°
2026-05-04 17:53 -28.52780 25.26832 40068 ft 459 kts 237°
2026-05-04 17:54 -28.56508 25.22547 40061 ft 459 kts 237°
2026-05-04 17:54 -28.60997 25.17385 40063 ft 459 kts 237°
2026-05-04 17:55 -28.65482 25.12223 40055 ft 459 kts 237°
2026-05-04 17:55 -28.69966 25.07046 40054 ft 459 kts 237°
2026-05-04 17:56 -28.74443 25.01872 40053 ft 459 kts 237°
2026-05-04 17:56 -28.78920 24.96695 40051 ft 458 kts 237°
2026-05-04 17:57 -28.83380 24.91531 40050 ft 457 kts 237°
2026-05-04 17:57 -28.87804 24.86400 40051 ft 456 kts 237°
2026-05-04 17:58 -28.92253 24.81233 40047 ft 456 kts 237°
2026-05-04 17:58 -28.96702 24.76059 40043 ft 456 kts 237°
2026-05-04 17:59 -29.01147 24.70884 40042 ft 456 kts 237°
2026-05-04 18:00 -29.07809 24.63117 40031 ft 456 kts 238°
2026-05-04 18:00 -29.12250 24.57931 40034 ft 456 kts 238°
2026-05-04 18:01 -29.16683 24.52746 40064 ft 456 kts 238°
2026-05-04 18:01 -29.21119 24.47554 40026 ft 455 kts 238°
2026-05-04 18:02 -29.27740 24.39788 40028 ft 455 kts 238°
2026-05-04 18:02 -29.32160 24.34595 40020 ft 454 kts 238°
2026-05-04 18:03 -29.36533 24.29450 40019 ft 454 kts 238°
2026-05-04 18:03 -29.40930 24.24270 40015 ft 454 kts 239°
2026-05-04 18:04 -29.45331 24.19077 40015 ft 454 kts 239°
2026-05-04 18:05 -29.51928 24.11283 40020 ft 454 kts 239°
2026-05-04 18:05 -29.56321 24.06085 40031 ft 453 kts 239°
2026-05-04 18:06 -29.62900 23.98286 40006 ft 453 kts 239°
2026-05-04 18:06 -29.67281 23.93082 40006 ft 453 kts 239°
2026-05-04 18:07 -29.71664 23.87872 40004 ft 453 kts 239°
2026-05-04 18:07 -29.76045 23.82656 40001 ft 453 kts 239°
2026-05-04 18:08 -29.80395 23.77471 40005 ft 453 kts 239°
2026-05-04 18:08 -29.84770 23.72247 40038 ft 454 kts 239°
2026-05-04 18:09 -29.93563 23.61724 39990 ft 457 kts 239°
2026-05-04 18:10 -29.97968 23.56446 39985 ft 457 kts 239°
2026-05-04 18:10 -30.02372 23.51163 39985 ft 457 kts 239°
2026-05-04 18:11 -30.06771 23.45876 39982 ft 456 kts 239°
2026-05-04 18:11 -30.11167 23.40586 39994 ft 456 kts 239°
2026-05-04 18:12 -30.15555 23.35297 39974 ft 456 kts 239°
2026-05-04 18:12 -30.19946 23.29997 39977 ft 456 kts 239°
2026-05-04 18:13 -30.24338 23.24687 39969 ft 457 kts 239°
2026-05-04 18:14 -30.30922 23.16718 39975 ft 457 kts 239°
2026-05-04 18:14 -30.35310 23.11396 39969 ft 457 kts 239°
2026-05-04 18:15 -30.44082 23.00729 39967 ft 461 kts 239°
2026-05-04 18:16 -30.48500 22.95352 39970 ft 461 kts 239°
2026-05-04 18:16 -30.52914 22.89972 40000 ft 461 kts 240°
2026-05-04 18:17 -30.59513 22.81910 39971 ft 462 kts 240°
2026-05-04 18:18 -30.66151 22.73783 39967 ft 463 kts 239°
2026-05-04 18:18 -30.70580 22.68351 39980 ft 463 kts 239°
2026-05-04 18:19 -30.77216 22.60200 39975 ft 463 kts 239°
2026-05-04 18:19 -30.81644 22.54751 39976 ft 463 kts 239°
2026-05-04 18:20 -30.86063 22.49306 40016 ft 463 kts 239°
2026-05-04 18:20 -30.90479 22.43853 39995 ft 462 kts 239°
2026-05-04 18:21 -30.94867 22.38420 39986 ft 460 kts 239°
2026-05-04 18:21 -30.99239 22.32980 39985 ft 459 kts 240°
2026-05-04 18:22 -31.03603 22.27541 39994 ft 460 kts 240°
2026-05-04 18:22 -31.07973 22.22092 39996 ft 460 kts 240°
2026-05-04 18:23 -31.12342 22.16640 39999 ft 460 kts 240°
2026-05-04 18:23 -31.16705 22.11186 40033 ft 460 kts 240°
2026-05-04 18:24 -31.21065 22.05730 40019 ft 459 kts 240°
2026-05-04 18:24 -31.25420 22.00268 40003 ft 460 kts 240°
2026-05-04 18:25 -31.29753 21.94827 40003 ft 460 kts 240°
2026-05-04 18:25 -31.34146 21.89306 40010 ft 460 kts 240°
2026-05-04 18:26 -31.38473 21.83857 40007 ft 460 kts 240°
2026-05-04 18:26 -31.42827 21.78368 40026 ft 460 kts 239°
2026-05-04 18:27 -31.47198 21.72840 40007 ft 465 kts 239°
2026-05-04 18:27 -31.51598 21.67275 40006 ft 466 kts 239°
2026-05-04 18:28 -31.56004 21.61697 40009 ft 467 kts 239°
2026-05-04 18:28 -31.60426 21.56087 40004 ft 469 kts 239°
2026-05-04 18:29 -31.64852 21.50468 40007 ft 469 kts 239°
2026-05-04 18:29 -31.69272 21.44847 40006 ft 468 kts 239°
2026-05-04 18:30 -31.75895 21.36407 40006 ft 469 kts 239°
2026-05-04 18:31 -31.80310 21.30767 40008 ft 469 kts 239°
2026-05-04 18:31 -31.84718 21.25130 40006 ft 468 kts 239°
2026-05-04 18:32 -31.89100 21.19515 39998 ft 469 kts 238°
2026-05-04 18:32 -31.93521 21.13839 40049 ft 471 kts 238°
2026-05-04 18:33 -31.97954 21.08142 40014 ft 472 kts 238°
2026-05-04 18:33 -32.02395 21.02429 40015 ft 473 kts 238°
2026-05-04 18:34 -32.06833 20.96713 40017 ft 473 kts 238°
2026-05-04 18:34 -32.11277 20.90979 40017 ft 473 kts 238°
2026-05-04 18:35 -32.15706 20.85252 40023 ft 473 kts 238°
2026-05-04 18:35 -32.20136 20.79515 40056 ft 473 kts 237°
2026-05-04 18:36 -32.24547 20.73798 39900 ft 469 kts 237°
2026-05-04 18:36 -32.26740 20.70954 39669 ft 468 kts 238°
2026-05-04 18:36 -32.28930 20.68107 39468 ft 469 kts 238°
2026-05-04 18:36 -32.31118 20.65257 39276 ft 469 kts 238°
2026-05-04 18:37 -32.33316 20.62395 39095 ft 468 kts 238°
2026-05-04 18:37 -32.35502 20.59548 38881 ft 467 kts 238°
2026-05-04 18:37 -32.37657 20.56738 38668 ft 468 kts 238°
2026-05-04 18:37 -32.39847 20.53881 38434 ft 469 kts 238°
2026-05-04 18:38 -32.42066 20.50985 38057 ft 467 kts 238°
2026-05-04 18:38 -32.44245 20.48140 37310 ft 469 kts 238°
2026-05-04 18:38 -32.46415 20.45298 36583 ft 472 kts 238°
2026-05-04 18:38 -32.48618 20.42411 35917 ft 473 kts 239°
2026-05-04 18:39 -32.50824 20.39523 35259 ft 473 kts 239°
2026-05-04 18:39 -32.53031 20.36628 34611 ft 475 kts 239°
2026-05-04 18:39 -32.55257 20.33706 33859 ft 477 kts 239°
2026-05-04 18:39 -32.57486 20.30778 33046 ft 479 kts 239°
2026-05-04 18:40 -32.59717 20.27849 32314 ft 479 kts 239°
2026-05-04 18:40 -32.61947 20.24921 31594 ft 478 kts 239°
2026-05-04 18:40 -32.64167 20.22007 30974 ft 475 kts 239°
2026-05-04 18:40 -32.66368 20.19118 30425 ft 470 kts 239°
2026-05-04 18:41 -32.68557 20.16242 29864 ft 466 kts 240°
2026-05-04 18:41 -32.70710 20.13409 29353 ft 461 kts 240°
2026-05-04 18:41 -32.72844 20.10597 28782 ft 456 kts 240°
2026-05-04 18:41 -32.74957 20.07807 28230 ft 451 kts 240°
2026-05-04 18:42 -32.77035 20.05061 27745 ft 445 kts 240°
2026-05-04 18:42 -32.79075 20.02360 27450 ft 425 kts 241°
2026-05-04 18:42 -32.81009 19.99749 27002 ft 420 kts 241°
2026-05-04 18:42 -32.81434 19.99177 26938 ft 418 kts 241°